Flag for United Kingdom Weather past 2 weeks in Newport (Isle of Wight), England, United Kingdom

Now
54 °F

Cool.


Feels Like: 51 °F
Forecast: 56 / 60 °F
Wind: 12 mph from West

Location: Solent M. R. S. C.

Current Time: Oct 25, 2014 at 1:18:02 AM

Latest Report: Oct 25, 2014 at 12:00 AM


Visibility: N/A

Pressure: 30.02 "Hg

Humidity: 92%

Dew point: 52 °F

Location of Newport (Isle of Wight)Location

Historic Weather in Newport (Isle of Wight) — Graph

°F

Newport (Isle of Wight) temperature yesterday

Maximum temperature yesterday: 61 °F (at 12:00 PM)
Minimum temperature yesterday: 54 °F (at 11:00 PM)
Average temperature yesterday: 59 °F

Past Weeks' High & Low Weather Summary

 TemperatureHumidityPressure
High65 °F (Oct 18, 1:00 PM)100% (Oct 15, 8:00 AM)30.34 "Hg (Oct 15, 8:00 AM)
Low47 °F (Oct 12, 5:00 AM)54% (Oct 21, 1:00 PM)29.41 "Hg (Oct 13, 5:00 AM)
Average57 °F89%29.85 "Hg
* Reported Midnight between Oct 9 and Oct 10 — Midnight between Oct 24 and Oct 25, Newport (Isle of Wight), Weather by CustomWeather, © 2014

Note: Actual official high and low records may vary slightly from our data, if they occured in-between our weather recording intervals... More about our weather records

Advertising

Newport (Isle of Wight) weather history for previous 24 hours

 ConditionsComfort  
Time TempWeatherWind HumidityBarometerVisibility
12:00 AM
Oct 25
54 °FCool.12 mph92%30.02 "HgN/A
11:00 PM
Oct 24
54 °FCool.7 mph89%30.01 "HgN/A
10:00 PM55 °FCool.9 mph84%30.00 "HgN/A
9:00 PM56 °FCool.10 mph83%29.98 "HgN/A
8:00 PM60 °FCool.17 mph95%29.96 "HgN/A
7:00 PM60 °FCool.16 mph95%29.94 "HgN/A
6:00 PM60 °FCool.16 mph93%29.93 "HgN/A
5:00 PM60 °FCool.15 mph94%29.93 "HgN/A
4:00 PM61 °FCool.13 mph94%29.92 "HgN/A
3:00 PM61 °FCool.10 mph95%29.93 "HgN/A
2:00 PM61 °FCool.9 mph95%29.94 "HgN/A
1:00 PM61 °FCool.8 mph93%29.96 "HgN/A
12:00 PM61 °FCool.9 mph95%29.98 "HgN/A
11:00 AM61 °FCool.8 mph96%29.98 "HgN/A
10:00 AM59 °FCool.10 mph97%29.99 "HgN/A
9:00 AM59 °FCool.9 mph98%29.99 "HgN/A
8:00 AM59 °FCool.10 mph98%29.99 "HgN/A
7:00 AM59 °FCool.12 mph97%29.98 "HgN/A
6:00 AM59 °FCool.14 mph98%29.99 "HgN/A
5:00 AM59 °FCool.15 mph98%29.99 "HgN/A
4:00 AM58 °FCool.13 mph98%30.00 "HgN/A
3:00 AM58 °FCool.14 mph98%30.02 "HgN/A
2:00 AM59 °FCool.17 mph98%30.03 "HgN/A
1:00 AM59 °FCool.17 mph96%30.03 "HgN/A
Weather by CustomWeather, © 2014

See weather overviewHow to use our weather pages